| time (UTC) | temp C | wind direction | speed KPH | gust KPH | rain 1hr cm | rain 24hr cm | rain mn cm | humidity % | barometer mb |
| 20260502182549 | 32 | 234 | 9.7 | 25.7 | 0.00 | 0.00 | 0.00 | 100 | 1011.8 |
| 20260502182045 | 32 | 231 | 8.0 | 24.1 | 0.00 | 0.00 | 0.00 | 100 | 1011.8 |
| 20260502181544 | 32 | 216 | 8.0 | 29.0 | 0.00 | 0.00 | 0.00 | 100 | 1011.8 |
| 20260502181046 | 32 | 227 | 16.1 | 29.0 | 0.00 | 0.00 | 0.00 | 100 | 1011.8 |
| 20260502180541 | 32 | 160 | 6.4 | 32.2 | 0.00 | 0.00 | 0.00 | 100 | 1011.9 |
| 20260502164016 | 31 | 198 | 14.5 | 32.2 | 0.00 | 0.00 | 0.00 | 100 | 1012.8 |
| 20260502163517 | 31 | 229 | 9.7 | 30.6 | 0.00 | 0.00 | 0.00 | 100 | 1012.8 |
| 20260502163019 | 31 | 211 | 11.3 | 30.6 | 0.00 | 0.00 | 0.00 | 100 | 1012.9 |
| 20260502162512 | 31 | 294 | 11.3 | 27.4 | 0.00 | 0.00 | 0.00 | 100 | 1012.9 |
| 20260502162011 | 31 | 231 | 4.8 | 30.6 | 0.00 | 0.00 | 0.00 | 100 | 1012.8 |
| 20260502161508 | 30 | 227 | 12.9 | 30.6 | 0.00 | 0.00 | 0.00 | 100 | 1012.9 |
| 20260502161007 | 30 | 239 | 8.0 | 30.6 | 0.00 | 0.00 | 0.00 | 100 | 1013.0 |
| 20260502160507 | 30 | 229 | 9.7 | 30.6 | 0.00 | 0.00 | 0.00 | 100 | 1013.0 |
| 20260502152053 | 29 | 229 | 11.3 | 27.4 | 0.00 | 0.00 | 0.00 | 100 | 1012.9 |
| 20260502151556 | 29 | 159 | 11.3 | 27.4 | 0.00 | 0.00 | 0.00 | 100 | 1012.9 |
| 20260502151050 | 28 | 219 | 9.7 | 27.4 | 0.00 | 0.00 | 0.00 | 100 | 1012.8 |
| 20260502150550 | 28 | 234 | 9.7 | 27.4 | 0.00 | 0.00 | 0.00 | 100 | 1012.9 |
| 20260502130535 | 25 | 223 | 3.2 | 14.5 | 0.00 | 0.00 | 0.00 | 100 | 1012.8 |
| 20260502123533 | 23 | 211 | 3.2 | 11.3 | 0.00 | 0.00 | 0.00 | 100 | 1012.8 |
| 20260502123039 | 23 | 238 | 1.6 | 11.3 | 0.00 | 0.00 | 0.00 | 100 | 1012.8 |
| 20260502122531 | 23 | 222 | 1.6 | 8.0 | 0.00 | 0.00 | 0.00 | 100 | 1012.7 |
| 20260502122031 | 22 | 244 | 3.2 | 11.3 | 0.00 | 0.00 | 0.00 | 100 | 1012.8 |
| 20260502121533 | 22 | 251 | 3.2 | 11.3 | 0.00 | 0.00 | 0.00 | 100 | 1012.6 |
| 20260502121030 | 22 | 244 | 1.6 | 8.0 | 0.00 | 0.00 | 0.00 | 100 | 1012.7 |
| 20260502120531 | 22 | 219 | 1.6 | 8.0 | 0.00 | 0.00 | 0.00 | 100 | 1012.8 |
| 20260502115530 | 21 | 244 | 3.2 | 8.0 | 0.00 | 0.00 | 0.00 | 100 | 1012.6 |
| 20260502115030 | 21 | 182 | 1.6 | 9.7 | 0.00 | 0.00 | 0.00 | 100 | 1012.7 |
| 20260502114540 | 21 | 186 | 3.2 | 9.7 | 0.00 | 0.00 | 0.00 | 100 | 1012.6 |
| 20260502114031 | 21 | 180 | 1.6 | 8.0 | 0.00 | 0.00 | 0.00 | 100 | 1012.7 |
| 20260502113530 | 21 | 235 | 1.6 | 9.7 | 0.00 | 0.00 | 0.00 | 100 | 1012.8 |
| 20260502113031 | 21 | 166 | 3.2 | 9.7 | 0.00 | 0.00 | 0.00 | 100 | 1012.7 |
| 20260502112529 | 21 | 194 | 3.2 | 6.4 | 0.00 | 0.00 | 0.00 | 100 | 1012.7 |
| 20260502112031 | 21 | 205 | 1.6 | 6.4 | 0.00 | 0.00 | 0.00 | 100 | 1012.8 |
| 20260502111529 | 21 | 207 | 1.6 | 6.4 | 0.00 | 0.00 | 0.00 | 100 | 1012.9 |
| 20260502111029 | 21 | 227 | 0.0 | 4.8 | 0.00 | 0.00 | 0.00 | 100 | 1012.9 |
| 20260502110529 | 21 | 229 | 1.6 | 6.4 | 0.00 | 0.00 | 0.00 | 100 | 1012.9 |
| 20260502110029 | 21 | 238 | 1.6 | 6.4 | 0.00 | 0.00 | 0.00 | 100 | 1012.9 |
| 20260502105527 | 21 | 230 | 3.2 | 6.4 | 0.00 | 0.00 | 0.00 | 100 | 1012.9 |
| 20260502105029 | 21 | 210 | 1.6 | 6.4 | 0.00 | 0.00 | 0.00 | 100 | 1012.8 |
| 20260502104527 | 21 | 211 | 1.6 | 6.4 | 0.00 | 0.00 | 0.00 | 100 | 1012.7 |
| 20260502104028 | 21 | 213 | 0.0 | 4.8 | 0.00 | 0.00 | 0.00 | 100 | 1012.8 |
| 20260502103527 | 21 | 212 | 1.6 | 4.8 | 0.00 | 0.00 | 0.00 | 100 | 1012.7 |
| 20260502103027 | 21 | 213 | 0.0 | 4.8 | 0.00 | 0.00 | 0.00 | 100 | 1012.7 |
| 20260502102527 | 21 | 207 | 0.0 | 6.4 | 0.00 | 0.00 | 0.00 | 100 | 1012.7 |
| 20260502102027 | 21 | 202 | 0.0 | 9.7 | 0.00 | 0.00 | 0.00 | 100 | 1012.7 |
| 20260502101526 | 21 | 197 | 3.2 | 9.7 | 0.00 | 0.00 | 0.00 | 100 | 1012.7 |
| 20260502101026 | 21 | 208 | 1.6 | 6.4 | 0.00 | 0.00 | 0.00 | 100 | 1012.7 |
| 20260502100525 | 21 | 210 | 1.6 | 6.4 | 0.00 | 0.00 | 0.00 | 100 | 1012.8 |
| 20260502091521 | 21 | 246 | 0.0 | 4.8 | 0.00 | 0.00 | 0.00 | 100 | 1012.7 |
| 20260502091021 | 21 | 294 | 0.0 | 8.0 | 0.00 | 0.00 | 0.00 | 100 | 1012.6 |
| 20260502090521 | 21 | 229 | 1.6 | 8.0 | 0.00 | 0.00 | 0.00 | 100 | 1012.6 |
| 20260502071510 | 23 | 240 | 1.6 | 8.0 | 0.00 | 0.00 | 0.00 | 100 | 1012.6 |
| 20260502071010 | 23 | 240 | 1.6 | 9.7 | 0.00 | 0.00 | 0.00 | 100 | 1012.5 |
| 20260502070509 | 23 | 229 | 3.2 | 6.4 | 0.00 | 0.00 | 0.00 | 100 | 1012.6 |
| 20260502070009 | 23 | 222 | 1.6 | 6.4 | 0.00 | 0.00 | 0.00 | 100 | 1012.7 |
| 20260502065508 | 23 | 230 | 1.6 | 6.4 | 0.00 | 0.00 | 0.00 | 100 | 1012.5 |
| 20260502065007 | 23 | 235 | 0.0 | 11.3 | 0.00 | 0.00 | 0.00 | 100 | 1012.5 |
| 20260502064512 | 23 | 234 | 1.6 | 11.3 | 0.00 | 0.00 | 0.00 | 100 | 1012.5 |
| 20260502064007 | 23 | 233 | 1.6 | 8.0 | 0.00 | 0.00 | 0.00 | 100 | 1012.5 |
| 20260502063507 | 23 | 220 | 1.6 | 8.0 | 0.00 | 0.00 | 0.00 | 100 | 1012.7 |
| 20260502063009 | 23 | 196 | 3.2 | 8.0 | 0.00 | 0.00 | 0.00 | 100 | 1012.5 |
| 20260502062506 | 23 | 213 | 1.6 | 8.0 | 0.00 | 0.00 | 0.00 | 100 | 1012.5 |
| 20260502062006 | 23 | 218 | 1.6 | 8.0 | 0.00 | 0.00 | 0.00 | 100 | 1012.6 |
| 20260502061504 | 23 | 199 | 1.6 | 6.4 | 0.00 | 0.00 | 0.00 | 100 | 1012.6 |
| 20260502061003 | 23 | 213 | 1.6 | 8.0 | 0.00 | 0.00 | 0.00 | 100 | 1012.6 |
| 20260502060505 | 23 | 212 | 3.2 | 11.3 | 0.00 | 0.00 | 0.00 | 100 | 1012.8 |
| 20260502060003 | 23 | 198 | 1.6 | 11.3 | 0.00 | 0.00 | 0.00 | 100 | 1012.8 |
| 20260502055502 | 23 | 228 | 3.2 | 8.0 | 0.00 | 0.00 | 0.00 | 100 | 1012.7 |
| 20260502055001 | 23 | 246 | 3.2 | 12.9 | 0.00 | 0.00 | 0.00 | 100 | 1012.9 |
| 20260502054503 | 24 | 224 | 4.8 | 12.9 | 0.00 | 0.00 | 0.00 | 100 | 1013.0 |
| 20260502054002 | 24 | 208 | 3.2 | 9.7 | 0.00 | 0.00 | 0.00 | 100 | 1013.1 |
| 20260502053600 | 24 | 198 | 3.2 | 11.3 | 0.00 | 0.00 | 0.00 | 100 | 1013.1 |
| 20260502053102 | 24 | 205 | 4.8 | 8.0 | 0.00 | 0.00 | 0.00 | 100 | 1013.1 |
| 20260502052559 | 24 | 213 | 3.2 | 9.7 | 0.00 | 0.00 | 0.00 | 100 | 1013.1 |
| 20260502052058 | 24 | 194 | 4.8 | 12.9 | 0.00 | 0.00 | 0.00 | 100 | 1013.2 |
| 20260502051557 | 24 | 186 | 4.8 | 12.9 | 0.00 | 0.00 | 0.00 | 100 | 1013.2 |
| 20260502051058 | 24 | 167 | 4.8 | 11.3 | 0.00 | 0.00 | 0.00 | 100 | 1013.2 |
| 20260502050557 | 24 | 182 | 1.6 | 6.4 | 0.00 | 0.00 | 0.00 | 100 | 1013.2 |
| 20260502050056 | 24 | 246 | 1.6 | 11.3 | 0.00 | 0.00 | 0.00 | 100 | 1013.3 |
| 20260502045656 | 24 | 224 | 3.2 | 11.3 | 0.00 | 0.00 | 0.00 | 100 | 1013.3 |
| 20260502045055 | 24 | 210 | 3.2 | 8.0 | 0.00 | 0.00 | 0.00 | 100 | 1013.2 |
| 20260502044607 | 24 | 232 | 3.2 | 8.0 | 0.00 | 0.00 | 0.00 | 100 | 1013.2 |
| 20260502044056 | 25 | 225 | 1.6 | 8.0 | 0.00 | 0.00 | 0.00 | 100 | 1013.2 |
| 20260502043556 | 25 | 217 | 1.6 | 8.0 | 0.00 | 0.00 | 0.00 | 100 | 1013.2 |
| 20260502043124 | 25 | 220 | 3.2 | 8.0 | 0.00 | 0.00 | 0.00 | 100 | 1013.2 |
| 20260502042553 | 25 | 227 | 4.8 | 8.0 | 0.00 | 0.00 | 0.00 | 100 | 1013.2 |
| 20260502042052 | 25 | 189 | 1.6 | 6.4 | 0.00 | 0.00 | 0.00 | 100 | 1013.2 |
| 20260502041600 | 25 | 197 | 3.2 | 8.0 | 0.00 | 0.00 | 0.00 | 100 | 1013.2 |
| 20260502041054 | 25 | 242 | 4.8 | 12.9 | 0.00 | 0.00 | 0.00 | 100 | 1013.2 |
| 20260502040554 | 25 | 204 | 3.2 | 8.0 | 0.00 | 0.00 | 0.00 | 100 | 1013.3 |
| 20260502040051 | 25 | 213 | 3.2 | 11.3 | 0.00 | 0.00 | 0.00 | 100 | 1013.2 |
| 20260502035550 | 25 | 225 | 4.8 | 11.3 | 0.00 | 0.00 | 0.00 | 100 | 1013.3 |
| 20260502035049 | 25 | 235 | 3.2 | 12.9 | 0.00 | 0.00 | 0.00 | 100 | 1013.4 |
| 20260502034549 | 25 | 234 | 3.2 | 11.3 | 0.00 | 0.00 | 0.00 | 100 | 1013.3 |
| 20260502034050 | 25 | 217 | 3.2 | 11.3 | 0.00 | 0.00 | 0.00 | 100 | 1013.3 |
| 20260502033548 | 25 | 235 | 3.2 | 12.9 | 0.00 | 0.00 | 0.00 | 100 | 1013.3 |
| 20260502033051 | 25 | 211 | 3.2 | 12.9 | 0.00 | 0.00 | 0.00 | 100 | 1013.3 |
| 20260502032548 | 25 | 203 | 4.8 | 11.3 | 0.00 | 0.00 | 0.00 | 100 | 1013.3 |
| 20260502032050 | 25 | 218 | 3.2 | 11.3 | 0.00 | 0.00 | 0.00 | 100 | 1013.2 |
| 20260502031550 | 25 | 192 | 3.2 | 11.3 | 0.00 | 0.00 | 0.00 | 100 | 1013.2 |
| 20260502031048 | 25 | 210 | 4.8 | 11.3 | 0.00 | 0.00 | 0.00 | 100 | 1013.2 |
| 20260502030547 | 25 | 214 | 3.2 | 14.5 | 0.00 | 0.00 | 0.00 | 100 | 1013.2 |
| 20260502030049 | 25 | 228 | 4.8 | 14.5 | 0.00 | 0.00 | 0.00 | 100 | 1013.2 |
| 20260502025547 | 25 | 176 | 4.8 | 14.5 | 0.00 | 0.00 | 0.00 | 100 | 1013.3 |
| 20260502025047 | 25 | 221 | 4.8 | 14.5 | 0.00 | 0.00 | 0.00 | 100 | 1013.3 |
| 20260502024548 | 25 | 236 | 3.2 | 9.7 | 0.00 | 0.00 | 0.00 | 100 | 1013.2 |
| 20260502024047 | 25 | 202 | 4.8 | 9.7 | 0.00 | 0.00 | 0.00 | 100 | 1013.1 |
| 20260502023549 | 26 | 205 | 3.2 | 14.5 | 0.00 | 0.00 | 0.00 | 100 | 1013.1 |
| 20260502023047 | 26 | 181 | 6.4 | 14.5 | 0.00 | 0.00 | 0.00 | 100 | 1013.0 |
| 20260502022545 | 26 | 159 | 6.4 | 14.5 | 0.00 | 0.00 | 0.00 | 100 | 1012.9 |
| 20260502022045 | 26 | 171 | 4.8 | 12.9 | 0.00 | 0.00 | 0.00 | 100 | 1012.9 |
| 20260502021546 | 26 | 190 | 6.4 | 12.9 | 0.00 | 0.00 | 0.00 | 100 | 1012.9 |
| 20260502021045 | 26 | 141 | 6.4 | 19.3 | 0.00 | 0.00 | 0.00 | 100 | 1012.9 |
| 20260502020548 | 26 | 190 | 4.8 | 14.5 | 0.00 | 0.00 | 0.00 | 100 | 1012.8 |
| 20260502020045 | 26 | 159 | 8.0 | 16.1 | 0.00 | 0.00 | 0.00 | 100 | 1012.7 |
| 20260502015545 | 26 | 192 | 4.8 | 12.9 | 0.00 | 0.00 | 0.00 | 100 | 1012.8 |
| 20260502015045 | 26 | 174 | 4.8 | 12.9 | 0.00 | 0.00 | 0.00 | 100 | 1012.7 |
| 20260502014545 | 26 | 198 | 4.8 | 19.3 | 0.00 | 0.00 | 0.00 | 100 | 1012.7 |
| 20260502014044 | 26 | 169 | 8.0 | 19.3 | 0.00 | 0.00 | 0.00 | 100 | 1012.6 |
| 20260502013544 | 26 | 157 | 6.4 | 17.7 | 0.00 | 0.00 | 0.00 | 100 | 1012.6 |
| 20260502013052 | 26 | 161 | 8.0 | 17.7 | 0.00 | 0.00 | 0.00 | 100 | 1012.5 |
| 20260502012544 | 26 | 166 | 8.0 | 17.7 | 0.00 | 0.00 | 0.00 | 100 | 1012.4 |
| 20260502012044 | 26 | 175 | 9.7 | 20.9 | 0.00 | 0.00 | 0.00 | 100 | 1012.5 |
| 20260502011547 | 26 | 159 | 11.3 | 20.9 | 0.00 | 0.00 | 0.00 | 100 | 1012.4 |
| 20260502011043 | 26 | 125 | 9.7 | 20.9 | 0.00 | 0.00 | 0.00 | 100 | 1012.3 |
| 20260502010543 | 26 | 171 | 8.0 | 20.9 | 0.00 | 0.00 | 0.00 | 100 | 1012.3 |
| 20260502010043 | 26 | 174 | 8.0 | 22.5 | 0.00 | 0.00 | 0.00 | 100 | 1012.1 |
| 20260502005544 | 26 | 162 | 6.4 | 20.9 | 0.00 | 0.00 | 0.00 | 100 | 1012.2 |
| 20260502005043 | 26 | 115 | 6.4 | 22.5 | 0.00 | 0.00 | 0.00 | 100 | 1012.1 |
| 20260502004545 | 26 | 189 | 6.4 | 19.3 | 0.00 | 0.00 | 0.00 | 100 | 1012.0 |
| 20260502004043 | 26 | 172 | 8.0 | 17.7 | 0.00 | 0.00 | 0.00 | 100 | 1011.9 |
| 20260502003542 | 26 | 165 | 9.7 | 17.7 | 0.00 | 0.00 | 0.00 | 100 | 1011.9 |
| 20260502003042 | 26 | 151 | 6.4 | 16.1 | 0.00 | 0.00 | 0.00 | 100 | 1011.8 |
| 20260502002541 | 26 | 133 | 9.7 | 17.7 | 0.00 | 0.00 | 0.00 | 100 | 1011.7 |
| 20260502002043 | 26 | 150 | 8.0 | 17.7 | 0.00 | 0.00 | 0.00 | 100 | 1011.6 |
| 20260502001541 | 26 | 162 | 6.4 | 17.7 | 0.00 | 0.00 | 0.00 | 100 | 1011.5 |
| 20260502001041 | 26 | 171 | 9.7 | 17.7 | 0.00 | 0.00 | 0.00 | 100 | 1011.4 |
| 20260502000541 | 27 | 151 | 8.0 | 17.7 | 0.00 | 0.00 | 0.00 | 100 | 1011.4 |
| 20260502000041 | 27 | 177 | 4.8 | 17.7 | 0.00 | 0.00 | 0.00 | 100 | 1011.4 |
| 20260501235540 | 27 | 167 | 9.7 | 17.7 | 0.00 | 0.00 | 0.00 | 100 | 1011.4 |
| 20260501235040 | 27 | 139 | 8.0 | 19.3 | 0.00 | 0.00 | 0.00 | 100 | 1011.4 |
| 20260501234542 | 27 | 155 | 9.7 | 24.1 | 0.00 | 0.00 | 0.00 | 100 | 1011.3 |
| 20260501234040 | 27 | 176 | 12.9 | 24.1 | 0.00 | 0.00 | 0.00 | 100 | 1011.3 |
| 20260501233540 | 27 | 156 | 9.7 | 24.1 | 0.00 | 0.00 | 0.00 | 100 | 1011.2 |
| 20260501233041 | 27 | 151 | 11.3 | 24.1 | 0.00 | 0.00 | 0.00 | 100 | 1011.2 |
| 20260501232542 | 27 | 175 | 8.0 | 22.5 | 0.00 | 0.00 | 0.00 | 100 | 1011.2 |
| 20260501232043 | 27 | 182 | 11.3 | 25.7 | 0.00 | 0.00 | 0.00 | 100 | 1011.1 |
| 20260501231539 | 27 | 155 | 8.0 | 25.7 | 0.00 | 0.00 | 0.00 | 100 | 1011.2 |
| 20260501231039 | 27 | 151 | 9.7 | 19.3 | 0.00 | 0.00 | 0.00 | 100 | 1011.1 |
| 20260501230538 | 27 | 161 | 8.0 | 22.5 | 0.00 | 0.00 | 0.00 | 100 | 1011.1 |
| 20260501230038 | 27 | 153 | 12.9 | 22.5 | 0.00 | 0.00 | 0.00 | 100 | 1011.0 |
| 20260501225538 | 27 | 130 | 9.7 | 16.1 | 0.00 | 0.00 | 0.00 | 100 | 1011.0 |
| 20260501225037 | 27 | 158 | 8.0 | 16.1 | 0.00 | 0.00 | 0.00 | 100 | 1011.0 |
| 20260501224540 | 27 | 156 | 8.0 | 20.9 | 0.00 | 0.00 | 0.00 | 100 | 1011.1 |
| 20260501224037 | 27 | 138 | 8.0 | 24.1 | 0.00 | 0.00 | 0.00 | 100 | 1010.9 |
| 20260501223537 | 27 | 153 | 6.4 | 24.1 | 0.00 | 0.00 | 0.00 | 100 | 1010.8 |
| 20260501223038 | 27 | 136 | 11.3 | 22.5 | 0.00 | 0.00 | 0.00 | 100 | 1010.8 |
| 20260501222537 | 27 | 163 | 9.7 | 22.5 | 0.00 | 0.00 | 0.00 | 100 | 1010.8 |
| 20260501222037 | 27 | 140 | 6.4 | 24.1 | 0.00 | 0.00 | 0.00 | 100 | 1010.8 |
| 20260501221537 | 27 | 138 | 11.3 | 24.1 | 0.00 | 0.00 | 0.00 | 100 | 1010.8 |
| 20260501221036 | 27 | 153 | 11.3 | 24.1 | 0.00 | 0.00 | 0.00 | 100 | 1010.8 |
| 20260501220538 | 27 | 153 | 11.3 | 25.7 | 0.00 | 0.00 | 0.00 | 100 | 1010.7 |
| 20260501220039 | 27 | 177 | 11.3 | 25.7 | 0.00 | 0.00 | 0.00 | 100 | 1010.8 |
| 20260501215535 | 27 | 133 | 9.7 | 24.1 | 0.00 | 0.00 | 0.00 | 100 | 1010.9 |
| 20260501215035 | 27 | 182 | 11.3 | 24.1 | 0.00 | 0.00 | 0.00 | 100 | 1011.0 |
| 20260501214536 | 27 | 121 | 6.4 | 29.0 | 0.00 | 0.00 | 0.00 | 100 | 1011.0 |
| 20260501214037 | 27 | 131 | 11.3 | 29.0 | 0.00 | 0.00 | 0.00 | 100 | 1011.0 |
| 20260501213533 | 27 | 143 | 8.0 | 25.7 | 0.00 | 0.00 | 0.00 | 100 | 1010.9 |
| 20260501213037 | 27 | 143 | 11.3 | 25.7 | 0.00 | 0.00 | 0.00 | 100 | 1011.1 |
| 20260501212532 | 27 | 154 | 11.3 | 27.4 | 0.00 | 0.00 | 0.00 | 100 | 1011.1 |
| 20260501212032 | 27 | 153 | 14.5 | 27.4 | 0.00 | 0.00 | 0.00 | 100 | 1011.1 |
| 20260501211535 | 27 | 159 | 12.9 | 29.0 | 0.00 | 0.00 | 0.00 | 100 | 1011.1 |
| 20260501211031 | 27 | 134 | 8.0 | 20.9 | 0.00 | 0.00 | 0.00 | 100 | 1011.1 |
| 20260501210532 | 28 | 126 | 6.4 | 24.1 | 0.00 | 0.00 | 0.00 | 100 | 1011.2 |
| 20260501210032 | 27 | 128 | 8.0 | 24.1 | 0.00 | 0.00 | 0.00 | 100 | 1011.2 |
| 20260501205530 | 27 | 103 | 14.5 | 25.7 | 0.00 | 0.00 | 0.00 | 100 | 1011.4 |
| 20260501205030 | 27 | 121 | 11.3 | 30.6 | 0.00 | 0.00 | 0.00 | 100 | 1011.4 |
| 20260501204541 | 27 | 175 | 12.9 | 30.6 | 0.00 | 0.00 | 0.00 | 100 | 1011.5 |
| 20260501204030 | 27 | 121 | 11.3 | 20.9 | 0.00 | 0.00 | 0.00 | 100 | 1011.4 |
| 20260501203528 | 27 | 144 | 6.4 | 22.5 | 0.00 | 0.00 | 0.00 | 100 | 1011.5 |
| 20260501203030 | 27 | 157 | 11.3 | 22.5 | 0.00 | 0.00 | 0.00 | 100 | 1011.7 |
| 20260501202527 | 27 | 144 | 16.1 | 29.0 | 0.00 | 0.00 | 0.00 | 100 | 1011.6 |
| 20260501202028 | 28 | 160 | 11.3 | 29.0 | 0.00 | 0.00 | 0.00 | 100 | 1011.7 |
| 20260501201528 | 28 | 151 | 9.7 | 19.3 | 0.00 | 0.00 | 0.00 | 100 | 1011.7 |
| 20260501201026 | 28 | 109 | 9.7 | 22.5 | 0.00 | 0.00 | 0.00 | 100 | 1011.7 |
| 20260501200526 | 28 | 175 | 12.9 | 27.4 | 0.00 | 0.00 | 0.00 | 100 | 1011.8 |
| 20260501200026 | 28 | 165 | 11.3 | 27.4 | 0.00 | 0.00 | 0.00 | 100 | 1011.9 |
| 20260501195527 | 28 | 126 | 8.0 | 25.7 | 0.00 | 0.00 | 0.00 | 100 | 1012.0 |
| 20260501195024 | 28 | 137 | 8.0 | 25.7 | 0.00 | 0.00 | 0.00 | 100 | 1012.0 |
| 20260501194526 | 28 | 148 | 12.9 | 20.9 | 0.00 | 0.00 | 0.00 | 100 | 1012.2 |
| 20260501194022 | 28 | 128 | 11.3 | 25.7 | 0.00 | 0.00 | 0.00 | 100 | 1012.2 |
| 20260501193522 | 27 | 169 | 12.9 | 29.0 | 0.00 | 0.00 | 0.00 | 100 | 1012.3 |
| 20260501193023 | 27 | 187 | 17.7 | 32.2 | 0.00 | 0.00 | 0.00 | 100 | 1012.2 |
| 20260501192522 | 28 | 167 | 17.7 | 32.2 | 0.00 | 0.00 | 0.00 | 100 | 1012.2 |
| 20260501192021 | 28 | 149 | 14.5 | 24.1 | 0.00 | 0.00 | 0.00 | 100 | 1012.3 |
| 20260501191532 | 28 | 96 | 14.5 | 25.7 | 0.00 | 0.00 | 0.00 | 100 | 1012.3 |
| 20260501191021 | 28 | 135 | 12.9 | 35.4 | 0.00 | 0.00 | 0.00 | 100 | 1012.2 |
| 20260501190521 | 28 | 84 | 11.3 | 35.4 | 0.00 | 0.00 | 0.00 | 100 | 1012.2 |
| 20260501190022 | 29 | 140 | 9.7 | 20.9 | 0.00 | 0.00 | 0.00 | 100 | 1012.2 |
| 20260501185520 | 29 | 144 | 8.0 | 16.1 | 0.00 | 0.00 | 0.00 | 100 | 1012.4 |
| 20260501185020 | 30 | 155 | 1.6 | 19.3 | 0.00 | 0.00 | 0.00 | 100 | 1012.6 |
| 20260501184536 | 29 | 144 | 11.3 | 19.3 | 0.00 | 0.00 | 0.00 | 100 | 1012.6 |
| 20260501184020 | 30 | 162 | 11.3 | 17.7 | 0.00 | 0.00 | 0.00 | 100 | 1012.6 |
| 20260501183519 | 30 | 133 | 3.2 | 20.9 | 0.00 | 0.00 | 0.00 | 100 | 1012.7 |
| 20260501183021 | 30 | 172 | 9.7 | 20.9 | 0.00 | 0.00 | 0.00 | 100 | 1012.7 |